PAA511 LSZH-EDDM

Flight info

Callsign PAA511
Flight time 0h 35m
Altitude 19000
Route DEGES Z6 NUNRI T103 BETOS BETOS1B
Aircraft B738/M-SDE2E3FGHIRWXY/LB1

Departure

Time 2026-05-06 19:32
Airport Zürich Airport (LSZH)

Arrival

Time 2026-05-06 20:07
Airport Munich Airport (EDDM)
Time Latitude Longitude Altitude Speed Heading
2026-05-06 18:48 47.45431 8.55692 1396 ft 0 kts 186°
2026-05-06 19:06 47.45432 8.55692 1369 ft 0 kts 186°
2026-05-06 19:20 47.45438 8.55693 1396 ft 3 kts 186°
2026-05-06 19:21 47.45457 8.55696 1407 ft 3 kts 186°
2026-05-06 19:21 47.45476 8.55699 1406 ft 3 kts 186°
2026-05-06 19:21 47.45490 8.55700 1401 ft 3 kts 148°
2026-05-06 19:21 47.45500 8.55682 1407 ft 0 kts 101°
2026-05-06 19:25 47.45502 8.55712 1408 ft 6 kts 83°
2026-05-06 19:26 47.45504 8.55777 1404 ft 6 kts 88°
2026-05-06 19:26 47.45503 8.55840 1396 ft 6 kts 96°
2026-05-06 19:26 47.45499 8.55901 1399 ft 6 kts 96°
2026-05-06 19:26 47.45495 8.55959 1396 ft 6 kts 96°
2026-05-06 19:27 47.45490 8.56015 1399 ft 5 kts 97°
2026-05-06 19:27 47.45484 8.56089 1396 ft 10 kts 98°
2026-05-06 19:27 47.45478 8.56193 1400 ft 10 kts 85°
2026-05-06 19:27 47.45511 8.56274 1400 ft 9 kts 50°
2026-05-06 19:28 47.45549 8.56342 1397 ft 8 kts 52°
2026-05-06 19:28 47.45582 8.56406 1401 ft 7 kts 52°
2026-05-06 19:28 47.45594 8.56464 1401 ft 5 kts 90°
2026-05-06 19:28 47.45591 8.56520 1400 ft 10 kts 95°
2026-05-06 19:29 47.45583 8.56641 1402 ft 12 kts 96°
2026-05-06 19:29 47.45575 8.56754 1403 ft 11 kts 96°
2026-05-06 19:29 47.45567 8.56861 1399 ft 10 kts 96°
2026-05-06 19:29 47.45563 8.56954 1399 ft 4 kts 85°
2026-05-06 19:30 47.45581 8.57008 1405 ft 5 kts 39°
2026-05-06 19:30 47.45596 8.57017 1407 ft 0 kts 13°
2026-05-06 19:30 47.45609 8.57020 1406 ft 5 kts 11°
2026-05-06 19:30 47.45641 8.57022 1408 ft 7 kts 350°
2026-05-06 19:31 47.45662 8.56974 1412 ft 5 kts 280°
2026-05-06 19:31 47.45679 8.56764 1410 ft 53 kts 276°
2026-05-06 19:31 47.45847 8.54377 1716 ft 154 kts 274°
2026-05-06 19:32 47.45927 8.52742 2528 ft 163 kts 272°
2026-05-06 19:32 47.45923 8.51120 3594 ft 151 kts 259°
2026-05-06 19:32 47.45466 8.49677 4200 ft 167 kts 232°
2026-05-06 19:32 47.44438 8.48767 4711 ft 191 kts 191°
2026-05-06 19:33 47.43082 8.49288 5369 ft 218 kts 148°
2026-05-06 19:33 47.42209 8.51184 6115 ft 240 kts 105°
2026-05-06 19:33 47.42315 8.53661 7014 ft 249 kts 66°
2026-05-06 19:33 47.43090 8.56027 7726 ft 266 kts 71°
2026-05-06 19:34 47.43482 8.58761 8449 ft 280 kts 83°
2026-05-06 19:34 47.43823 8.61687 9141 ft 298 kts 79°
2026-05-06 19:34 47.44284 8.64740 9962 ft 308 kts 77°
2026-05-06 19:34 47.44773 8.67903 10576 ft 324 kts 81°
2026-05-06 19:35 47.45312 8.71225 11099 ft 342 kts 69°
2026-05-06 19:35 47.46171 8.74601 11629 ft 359 kts 71°
2026-05-06 19:35 47.47020 8.78175 12410 ft 367 kts 71°
2026-05-06 19:35 47.47870 8.81757 13327 ft 371 kts 71°
2026-05-06 19:36 47.48750 8.85373 14220 ft 375 kts 71°
2026-05-06 19:36 47.49653 8.89010 15065 ft 378 kts 71°
2026-05-06 19:36 47.50565 8.92673 15943 ft 381 kts 71°
2026-05-06 19:36 47.51476 8.96371 16793 ft 384 kts 71°
2026-05-06 19:37 47.52387 9.00106 17646 ft 388 kts 71°
2026-05-06 19:37 47.53301 9.03864 18566 ft 388 kts 71°
2026-05-06 19:37 47.54214 9.07622 18878 ft 399 kts 72°
2026-05-06 19:37 47.54849 9.10231 18919 ft 396 kts 72°
2026-05-06 19:38 47.56072 9.15246 18924 ft 388 kts 72°
2026-05-06 19:38 47.56987 9.19015 18931 ft 389 kts 72°
2026-05-06 19:38 47.57900 9.22790 18936 ft 388 kts 72°
2026-05-06 19:38 47.58810 9.26555 18924 ft 390 kts 72°
2026-05-06 19:39 47.59733 9.30387 18930 ft 396 kts 72°
2026-05-06 19:39 47.60654 9.34209 18928 ft 392 kts 72°
2026-05-06 19:39 47.61570 9.38015 18925 ft 392 kts 72°
2026-05-06 19:39 47.62488 9.41834 18927 ft 393 kts 72°
2026-05-06 19:40 47.63402 9.45650 18926 ft 392 kts 72°
2026-05-06 19:40 47.64313 9.49458 18927 ft 392 kts 72°
2026-05-06 19:40 47.65224 9.53271 18927 ft 392 kts 72°
2026-05-06 19:40 47.66133 9.57087 18928 ft 392 kts 72°
2026-05-06 19:41 47.67040 9.60898 18929 ft 392 kts 72°
2026-05-06 19:41 47.67948 9.64718 18929 ft 392 kts 72°
2026-05-06 19:41 47.68853 9.68534 18930 ft 392 kts 72°
2026-05-06 19:41 47.69757 9.72352 18925 ft 392 kts 73°
2026-05-06 19:42 47.70662 9.76179 18928 ft 393 kts 73°
2026-05-06 19:42 47.71565 9.80008 18933 ft 393 kts 73°
2026-05-06 19:42 47.72467 9.83838 18932 ft 393 kts 73°
2026-05-06 19:42 47.73367 9.87668 18930 ft 393 kts 73°
2026-05-06 19:43 47.74266 9.91497 18934 ft 393 kts 73°
2026-05-06 19:43 47.75164 9.95329 18928 ft 392 kts 73°
2026-05-06 19:43 47.76059 9.99158 18932 ft 392 kts 73°
2026-05-06 19:43 47.76953 10.02986 18929 ft 392 kts 73°
2026-05-06 19:44 47.77643 10.06874 18918 ft 386 kts 86°
2026-05-06 19:44 47.77974 10.10841 18930 ft 387 kts 85°
2026-05-06 19:44 47.78345 10.14812 18918 ft 388 kts 85°
2026-05-06 19:44 47.78719 10.18786 18906 ft 385 kts 85°
2026-05-06 19:45 47.79069 10.22714 18902 ft 381 kts 86°
2026-05-06 19:45 47.79398 10.26607 18910 ft 378 kts 86°
2026-05-06 19:45 47.79720 10.30482 18910 ft 376 kts 86°
2026-05-06 19:45 47.80043 10.34328 18915 ft 374 kts 86°
2026-05-06 19:46 47.80370 10.38160 18919 ft 374 kts 86°
2026-05-06 19:46 47.80698 10.41993 18917 ft 373 kts 86°
2026-05-06 19:46 47.81024 10.45846 18954 ft 382 kts 86°
2026-05-06 19:46 47.81354 10.49799 18665 ft 384 kts 86°
2026-05-06 19:47 47.81683 10.53707 18360 ft 377 kts 86°
2026-05-06 19:47 47.82006 10.57542 18096 ft 370 kts 86°
2026-05-06 19:47 47.82318 10.61290 17834 ft 361 kts 86°
2026-05-06 19:47 47.82622 10.64964 17594 ft 354 kts 86°
2026-05-06 19:48 47.82818 10.67361 17435 ft 350 kts 86°
2026-05-06 19:48 47.83111 10.70940 17191 ft 346 kts 86°
2026-05-06 19:48 47.83399 10.74472 16953 ft 343 kts 86°
2026-05-06 19:48 47.83685 10.77999 16655 ft 342 kts 86°
2026-05-06 19:49 47.83970 10.81515 16347 ft 342 kts 86°
2026-05-06 19:49 47.84255 10.85027 16046 ft 341 kts 86°
2026-05-06 19:49 47.84536 10.88513 15940 ft 335 kts 86°
2026-05-06 19:49 47.84812 10.91921 15927 ft 330 kts 86°
2026-05-06 19:50 47.85087 10.95417 15941 ft 350 kts 86°
2026-05-06 19:50 47.85373 10.99047 15936 ft 349 kts 86°
2026-05-06 19:50 47.85657 11.02594 15924 ft 342 kts 86°
2026-05-06 19:50 47.85937 11.06116 15902 ft 342 kts 86°
2026-05-06 19:51 47.86215 11.09650 15914 ft 345 kts 86°
2026-05-06 19:51 47.86494 11.13198 15910 ft 344 kts 86°
2026-05-06 19:51 47.86774 11.16732 15910 ft 344 kts 86°
2026-05-06 19:51 47.87057 11.20274 15910 ft 344 kts 86°
2026-05-06 19:52 47.87344 11.23816 15902 ft 344 kts 86°
2026-05-06 19:52 47.87633 11.27351 15905 ft 344 kts 86°
2026-05-06 19:52 47.87927 11.30893 15907 ft 344 kts 85°
2026-05-06 19:52 47.88650 11.34304 15922 ft 350 kts 62°
2026-05-06 19:53 47.90104 11.37225 15940 ft 354 kts 53°
2026-05-06 19:53 47.91672 11.40065 15924 ft 354 kts 51°
2026-05-06 19:53 47.93250 11.42853 15917 ft 349 kts 51°
2026-05-06 19:53 47.94800 11.45611 15884 ft 343 kts 52°
2026-05-06 19:54 47.96300 11.48333 15839 ft 337 kts 52°
2026-05-06 19:54 47.97769 11.51030 15713 ft 333 kts 52°
2026-05-06 19:54 47.99210 11.53679 15420 ft 330 kts 52°
2026-05-06 19:54 48.00656 11.56326 14990 ft 329 kts 52°
2026-05-06 19:55 48.02110 11.58980 14521 ft 330 kts 52°
2026-05-06 19:55 48.03566 11.61638 14071 ft 331 kts 51°
2026-05-06 19:55 48.05025 11.64307 13613 ft 332 kts 51°
2026-05-06 19:55 48.06488 11.66988 13111 ft 333 kts 51°
2026-05-06 19:56 48.07952 11.69676 12613 ft 334 kts 51°
2026-05-06 19:56 48.09437 11.72403 12097 ft 334 kts 51°
2026-05-06 19:56 48.10884 11.75063 11627 ft 334 kts 51°
2026-05-06 19:56 48.12368 11.77794 11145 ft 334 kts 51°
2026-05-06 19:57 48.13800 11.80432 10705 ft 326 kts 51°
2026-05-06 19:57 48.15233 11.83075 10274 ft 319 kts 51°
2026-05-06 19:57 48.16598 11.85594 9874 ft 313 kts 51°
2026-05-06 19:57 48.17956 11.88104 9427 ft 307 kts 50°
2026-05-06 19:58 48.19307 11.90605 8971 ft 302 kts 50°
2026-05-06 19:58 48.20608 11.93013 8503 ft 302 kts 49°
2026-05-06 19:58 48.21943 11.95487 8010 ft 306 kts 49°
2026-05-06 19:58 48.23276 11.97961 7556 ft 302 kts 48°
2026-05-06 19:59 48.24589 12.00399 7115 ft 298 kts 48°
2026-05-06 19:59 48.25893 12.02805 6674 ft 297 kts 45°
2026-05-06 19:59 48.27370 12.04951 6261 ft 296 kts 42°
2026-05-06 19:59 48.28394 12.07662 5806 ft 304 kts 68°
2026-05-06 20:00 48.28947 12.10747 5352 ft 307 kts 76°
2026-05-06 20:00 48.29421 12.13839 4896 ft 300 kts 64°
2026-05-06 20:00 48.30637 12.16219 4471 ft 281 kts 29°
2026-05-06 20:00 48.32372 12.17144 4053 ft 256 kts 352°
2026-05-06 20:01 48.33952 12.16361 4016 ft 233 kts 317°
2026-05-06 20:01 48.35026 12.14661 4010 ft 219 kts 303°
2026-05-06 20:01 48.35755 12.12718 3999 ft 210 kts 293°
2026-05-06 20:01 48.36351 12.10733 4006 ft 206 kts 290°
2026-05-06 20:02 48.36813 12.08713 4012 ft 204 kts 277°
2026-05-06 20:02 48.36818 12.06597 3998 ft 203 kts 265°
2026-05-06 20:02 48.36586 12.04523 4023 ft 201 kts 261°
2026-05-06 20:02 48.36308 12.02446 4032 ft 199 kts 261°
2026-05-06 20:03 48.36069 12.00393 4012 ft 205 kts 263°
2026-05-06 20:03 48.35863 11.98286 3797 ft 199 kts 264°
2026-05-06 20:03 48.35684 11.96288 3558 ft 186 kts 264°
2026-05-06 20:03 48.35530 11.94442 3321 ft 169 kts 264°
2026-05-06 20:04 48.35401 11.92796 3113 ft 150 kts 265°
2026-05-06 20:04 48.35290 11.91305 2916 ft 136 kts 265°
2026-05-06 20:04 48.35189 11.89918 2746 ft 132 kts 265°
2026-05-06 20:04 48.35090 11.88552 2585 ft 129 kts 264°
2026-05-06 20:05 48.34992 11.87202 2431 ft 133 kts 263°
2026-05-06 20:05 48.34891 11.85840 2197 ft 129 kts 261°
2026-05-06 20:05 48.34786 11.84483 2070 ft 132 kts 261°
2026-05-06 20:05 48.34683 11.83130 1876 ft 127 kts 261°
2026-05-06 20:06 48.34584 11.81819 1720 ft 128 kts 262°
2026-05-06 20:06 48.34482 11.80494 1536 ft 125 kts 261°
2026-05-06 20:06 48.34394 11.79304 1485 ft 103 kts 261°
2026-05-06 20:06 48.34329 11.78506 1482 ft 57 kts 263°
2026-05-06 20:07 48.34327 11.77964 1480 ft 48 kts 287°
2026-05-06 20:07 48.34434 11.77591 1482 ft 32 kts 296°
2026-05-06 20:07 48.34570 11.77431 1478 ft 17 kts 355°
2026-05-06 20:07 48.34634 11.77540 1481 ft 16 kts 80°
2026-05-06 20:08 48.34647 11.77700 1476 ft 15 kts 82°
2026-05-06 20:08 48.34659 11.77852 1485 ft 14 kts 82°
2026-05-06 20:08 48.34674 11.77999 1485 ft 14 kts 80°
2026-05-06 20:08 48.34688 11.78105 1482 ft 9 kts 96°
2026-05-06 20:09 48.34690 11.78224 1485 ft 14 kts 85°
2026-05-06 20:09 48.34700 11.78366 1476 ft 13 kts 84°
2026-05-06 20:09 48.34710 11.78514 1472 ft 15 kts 83°
2026-05-06 20:09 48.34731 11.78772 1485 ft 30 kts 83°
2026-05-06 20:10 48.34756 11.79076 1481 ft 29 kts 83°
2026-05-06 20:10 48.34773 11.79334 1480 ft 22 kts 84°
2026-05-06 20:10 48.34779 11.79421 1483 ft 6 kts 83°
2026-05-06 20:10 48.34788 11.79515 1483 ft 9 kts 82°
2026-05-06 20:11 48.34861 11.79553 1472 ft 21 kts 354°
2026-05-06 20:11 48.35003 11.79531 1481 ft 17 kts 354°
2026-05-06 20:11 48.35121 11.79512 1485 ft 17 kts 353°
2026-05-06 20:11 48.35234 11.79492 1485 ft 16 kts 353°
2026-05-06 20:12 48.35342 11.79473 1483 ft 15 kts 352°
2026-05-06 20:12 48.35363 11.79397 1481 ft 6 kts 231°
2026-05-06 20:12 48.35349 11.79350 1474 ft 4 kts 257°
2026-05-06 20:12 48.35346 11.79313 1479 ft 1 kts 264°
2026-05-06 20:13 48.35345 11.79306 1481 ft 0 kts 264°
2026-05-06 20:22 48.35345 11.79307 1480 ft 0 kts 264°
2026-05-06 20:32 48.35345 11.79308 1485 ft 0 kts 264°
2026-05-06 20:42 48.35345 11.79309 1485 ft 0 kts 264°
2026-05-06 20:52 48.35345 11.79310 1485 ft 0 kts 264°